Location: Unspecified
(0.0000°N, 0.0000°E)
Time: 00:16:44
(UTC+00:00)

CZ-3C DEB - Pass Details

Date: 22 February 2026
Orbit: 506 x 35764 km, 20.4° (Epoch: 1 August)

Event Time Altitude Azimuth Distance (km) Brightness Sun altitude
Rises 16:35:29 0° 244° (WSW) 7,306 ? 24.1°
Reaches altitude 10° 16:38:24 10° 242° (WSW) 7,185 ? 23.4°
Maximum altitude 17:57:50 88° 115° (ESE) 20,518 ? 3.8°
Enters shadow 01:20:39 45° 307° (NW) 19,933 ? -70.6°
Exits shadow 02:15:19 57° 351° (N) 7,705 ? -58.1°
Drops below altitude 10° 02:35:16 10° 76° (ENE) 4,829 ? -53.4°
Sets 02:37:23 0° 82° (E) 5,169 ? -52.9°
